Location: Unspecified
(41.5000°N, 0.0000°E)
Time: 13:13:28
(UTC+00:00)

deb Explorer IX - Pass Details

Date: 22 June 2019
Orbit: 540 x 1110 km, 38.8° (Epoch: 24 August)

Event Time Altitude Azimuth Distance (km) Brightness Sun altitude
Rises 15:03:13 0° 256° (WSW) 3,861 ? 48.3°
Reaches altitude 10° 15:05:55 10° 254° (WSW) 2,940 ? 47.8°
Maximum altitude 15:13:12 70° 173° (S) 1,173 ? 46.5°
Drops below altitude 10° 15:20:23 10° 91° (E) 2,900 ? 45.2°
Sets 15:23:03 0° 89° (E) 3,805 ? 44.7°
